"Pseudo-MPEC" for P10TIUz

Created 2019 Nov 9 5:07:14 UT using Find_Orb

Click here for an explanation of pseudo-MPECs

 
 Astrometry: 
     P10TIUz  C2019 10 29Gsm-ZUSW(qXAstrometryyVlredacted;'++w.*YWA:w8Gg`tZG!F51
     P10TIUz  C2019 10 29nTK^]]9Oax59-SCfclick0?-WMtq.?#u1(Z7eqqY!here3W6LiI*F51
     P10TIUz  C2019 10 29yhd`85KnCDK@\\TNGKyZLfor2lb80Qboexplanation**YE^KZ0?F51

Station data:
(F51) Pan-STARRS 1, Haleakala  (N20.707235 W156.255910)  US/Hawaii.
   Observers N. Primak, A. Schultz, S. Watters, J. Thiel, T. Goggia. Measurer
   PS1 Science Consortium. 1.8-m Ritchey-Chrétien + CCD.

Orbital elements:  P10TIUz
   Perihelion 2020 Feb 7.238763 +/- 325 TT =  5:43:49 (JD 2458886.738763)
Epoch 2019 Oct 29.0 TT = JDT 2458785.5   Earth MOID: 0.3196   Ma: 0.0636
M 329.15840368 +/- 70               (J2000 ecliptic)          AutoNEOCP
n   0.30464216 +/- 0.217            Peri.  274.83145 +/- 90
a   2.18747301 +/- 1.04             Node   185.41634 +/- 24
e   0.4120045 +/- 0.249             Incl.    5.22371 +/- 38
P   3.24                   H 22.0   G  0.15   U 11.7  SR
q 1.28622422 +/- 0.964    Q 3.08872179 +/- 34.2
From 3 observations 2019 Oct. 29 (34.5 min); mean residual 0".02
Residuals in arcseconds: 
191029 F51  .01-  .01+    191029 F51  .03+  .03-    191029 F51  .01-  .01+    

Ephemerides (geocentric):
Date (UTC) HH   RA              Dec         delta   r     elong  mag " sig PA
---- -- -- --  -------------   -----------  ------ ------ -----  --- ---- ---
2019 11 09 05  01 22 32.390   +01 05 53.11  .58841 1.5365 152.4 22.7 4378  28
2019 11 09 06  01 22 30.628   +01 05 25.75  .58837 1.5363 152.4 22.7 4438  30
2019 11 09 07  01 22 28.870   +01 04 58.43  .58834 1.5361 152.3 22.7 4503  32
2019 11 09 08  01 22 27.115   +01 04 31.15  .58831 1.5359 152.3 22.7 4571  34
2019 11 09 09  01 22 25.363   +01 04 03.89  .58828 1.5357 152.2 22.7 4644  35
2019 11 09 10  01 22 23.615   +01 03 36.67  .58825 1.5355 152.2 22.7 4721  37
2019 11 09 11  01 22 21.869   +01 03 09.48  .58822 1.5353 152.1 22.7 4802  39
2019 11 09 12  01 22 20.127   +01 02 42.33  .58819 1.5351 152.1 22.7 4888  40
2019 11 09 13  01 22 18.388   +01 02 15.21  .58816 1.5349 152.0 22.7 4979  42
2019 11 09 14  01 22 16.653   +01 01 48.12  .58813 1.5347 152.0 22.7 5075  43
2019 11 09 15  01 22 14.921   +01 01 21.07  .58810 1.5345 151.9 22.7 5176  44
2019 11 09 16  01 22 13.192   +01 00 54.05  .58807 1.5343 151.9 22.7 5281  45
2019 11 09 17  01 22 11.466   +01 00 27.07  .58804 1.5341 151.8 22.7 5393  47
2019 11 09 18  01 22 09.743   +01 00 00.12  .58801 1.5339 151.8 22.7 5510  48
2019 11 09 19  01 22 08.024   +00 59 33.20  .58798 1.5337 151.7 22.7 5633  49
2019 11 09 20  01 22 06.308   +00 59 06.32  .58795 1.5335 151.6 22.7 5762  50
2019 11 09 21  01 22 04.596   +00 58 39.48  .58792 1.5333 151.6 22.7 5897  50
2019 11 09 22  01 22 02.886   +00 58 12.66  .58789 1.5331 151.5 22.7 6040  51
2019 11 09 23  01 22 01.180   +00 57 45.88  .58787 1.5329 151.5 22.7 6189  52
2019 11 10 00  01 21 59.478   +00 57 19.14  .58784 1.5327 151.4 22.7 6346  53
2019 11 10 01  01 21 57.779   +00 56 52.43  .58781 1.5325 151.4 22.7 6511  53
2019 11 10 02  01 21 56.083   +00 56 25.76  .58779 1.5324 151.3 22.7 6684  54
2019 11 10 03  01 21 54.390   +00 55 59.11  .58776 1.5322 151.3 22.7 6866  54
2019 11 10 04  01 21 52.701   +00 55 32.51  .58773 1.5320 151.2 22.7 7058  55
2019 11 10 05  01 21 51.015   +00 55 05.94  .58771 1.5318 151.2 22.7 7260  55
2019 11 10 06  01 21 49.333   +00 54 39.40  .58768 1.5316 151.1 22.7 7474  56
2019 11 10 07  01 21 47.654   +00 54 12.90  .58766 1.5314 151.1 22.7 7698  56
2019 11 10 08  01 21 45.978   +00 53 46.43  .58763 1.5312 151.0 22.7 7936  57
2019 11 10 09  01 21 44.306   +00 53 20.00  .58760 1.5310 151.0 22.7 8187  57
2019 11 10 10  01 21 42.637   +00 52 53.61  .58758 1.5308 150.9 22.7 8452  57
2019 11 10 11  01 21 40.972   +00 52 27.25  .58756 1.5306 150.9 22.7 8733  58
2019 11 10 12  01 21 39.310   +00 52 00.92  .58753 1.5304 150.8 22.7 9032  58
2019 11 10 13  01 21 37.651   +00 51 34.63  .58751 1.5302 150.8 22.7 9348  58
2019 11 10 14  01 21 35.996   +00 51 08.38  .58748 1.5300 150.7 22.7 9685  58
2019 11 10 15  01 21 34.344   +00 50 42.16  .58746 1.5298 150.7 22.7 167'  59
2019 11 10 16  01 21 32.696   +00 50 15.97  .58744 1.5296 150.6 22.7 174'  59
2019 11 10 17  01 21 31.051   +00 49 49.82  .58741 1.5294 150.6 22.7 181'  59
2019 11 10 18  01 21 29.410   +00 49 23.71  .58739 1.5292 150.5 22.7 188'  59
2019 11 10 19  01 21 27.772   +00 48 57.63  .58737 1.5290 150.5 22.7 196'  59
2019 11 10 20  01 21 26.137   +00 48 31.59  .58735 1.5288 150.4 22.7 204'  59
2019 11 10 21  01 21 24.507   +00 48 05.59  .58733 1.5286 150.4 22.7 213'  59
2019 11 10 22  01 21 22.879   +00 47 39.62  .58730 1.5284 150.3 22.7 223'  59
2019 11 10 23  01 21 21.255   +00 47 13.68  .58728 1.5283 150.3 22.7 233'  59
2019 11 11 00  01 21 19.635   +00 46 47.78  .58726 1.5281 150.2 22.7 244'  59
2019 11 11 01  01 21 18.018   +00 46 21.92  .58724 1.5279 150.2 22.7 256'  59
2019 11 11 02  01 21 16.405   +00 45 56.10  .58722 1.5277 150.1 22.7 269'  58
2019 11 11 03  01 21 14.795   +00 45 30.31  .58720 1.5275 150.1 22.7 283'  58
2019 11 11 04  01 21 13.189   +00 45 04.55  .58718 1.5273 150.0 22.7 299'  58